Theta_e
301 303 304 304 305 305 305 304 304 304 304 304 304 304 304 304 304 305 306 307 306 307 308 308 308 308 309 311 310 309 310 310 310 310 311 311 313 322 332 332 330 332 330 326 329 337 341 341 341 341 341 341 341 340 340 339 339 339 338 338 339 339 339 338 335 332 331 332 333 333 334 333 333 334 334 331 327 326 326 326 326 327 329 331 333 334
302 303 303 302 304 305 305 305 304 304 304 304 303 303 303 303 303 304 304 306 306 306 307 307 306 306 306 308 309 309 310 310 309 309 310 311 312 318 330 334 332 329 327 325 330 338 342 342 341 341 341 341 341 340 340 339 339 339 338 338 339 340 339 338 336 333 331 332 333 334 334 333 332 333 334 332 329 327 327 327 327 328 328 330 332 333
304 304 303 302 302 303 304 304 304 304 304 304 303 303 303 303 303 304 304 305 305 305 306 305 304 305 305 306 308 309 310 310 310 310 310 311 311 315 326 333 335 334 331 331 336 340 341 341 342 341 341 341 340 340 340 339 339 339 339 338 340 340 339 338 336 335 333 332 332 334 335 334 333 333 334 334 332 330 329 328 328 329 329 329 331 333
305 305 303 302 302 302 303 303 303 303 303 303 303 303 303 303 303 304 305 305 305 305 306 305 305 305 305 306 308 308 308 309 310 310 310 311 310 312 319 328 334 336 335 335 339 340 341 341 342 341 341 341 340 340 340 339 339 339 339 339 340 340 340 338 336 336 335 332 333 335 336 335 334 334 335 335 333 332 331 329 329 330 330 331 332 333
304 304 303 302 303 303 303 302 302 302 303 302 303 303 302 303 303 303 304 304 305 305 305 305 305 305 306 306 306 308 309 309 309 309 310 310 311 311 314 321 330 334 333 334 338 340 341 341 341 341 341 341 341 340 340 338 337 338 339 339 340 340 340 338 337 336 335 334 334 336 337 336 336 336 336 336 334 332 331 330 331 331 331 332 332 334
303 303 303 303 303 303 302 302 302 302 303 303 303 303 302 303 303 303 304 303 304 305 305 305 305 306 307 308 307 308 310 310 309 309 310 310 311 311 312 319 328 333 334 333 333 335 339 341 341 341 342 341 341 340 338 335 335 338 339 339 340 340 340 339 338 337 336 335 334 336 336 336 336 337 336 335 333 332 330 330 332 332 331 332 333 334
303 303 303 304 304 303 302 302 302 302 303 303 304 304 303 303 303 303 303 303 305 306 305 305 305 306 308 309 311 312 311 312 311 311 310 309 311 312 312 315 324 332 336 337 335 332 335 339 341 342 341 341 341 338 336 335 336 338 339 339 340 340 340 339 338 337 337 336 334 334 335 335 336 336 335 334 333 331 329 331 332 332 331 332 333 334
304 304 304 304 304 303 303 302 302 302 302 302 304 305 304 303 303 303 303 303 305 305 305 305 305 305 305 308 314 314 311 312 311 311 311 309 309 311 312 314 319 327 334 337 339 338 337 338 340 341 341 341 340 337 336 336 337 337 338 339 340 341 340 339 338 338 337 336 335 334 334 335 336 335 334 333 332 331 331 332 333 332 330 332 333 334
303 304 304 303 303 303 302 302 302 302 301 302 302 303 303 303 303 303 303 303 304 304 305 305 305 306 305 307 312 311 309 310 309 310 310 308 308 309 311 313 316 322 330 335 338 339 339 338 338 339 340 340 338 338 337 335 334 337 338 339 340 341 341 340 339 338 338 337 336 335 334 335 335 335 334 333 333 332 332 333 333 331 330 331 333 334
306 304 304 303 303 302 302 302 302 301 301 302 302 302 303 302 303 303 303 303 304 305 305 304 305 305 306 307 309 308 308 308 307 308 309 308 309 309 310 312 314 319 328 334 336 337 339 339 337 335 337 338 338 338 336 333 334 338 339 340 340 340 341 340 339 339 338 337 337 336 335 334 334 334 334 333 333 333 333 333 333 332 330 330 332 333
306 306 305 305 305 304 303 303 302 301 301 302 303 303 303 303 303 303 304 303 304 305 305 304 305 305 305 307 308 309 311 310 308 308 309 309 309 309 310 311 312 318 326 334 337 337 338 339 338 336 335 337 339 339 338 336 337 339 340 340 340 340 341 340 340 339 338 338 337 337 336 334 333 333 333 332 333 333 333 333 333 331 330 330 330 332
305 305 305 305 305 305 304 303 302 302 302 302 303 302 303 305 306 305 305 304 304 305 305 304 305 305 304 306 308 310 311 311 309 309 310 310 309 310 311 311 311 315 324 333 336 337 339 340 341 341 340 341 341 341 340 338 338 340 340 340 340 340 341 341 340 339 339 338 337 337 336 335 334 333 331 331 332 332 333 333 332 332 331 330 330 332
305 305 305 305 305 304 304 304 304 303 303 302 303 303 303 305 306 305 306 306 305 306 306 306 305 305 305 306 307 308 308 309 309 308 309 309 309 309 310 311 311 312 320 332 337 338 339 339 340 341 341 341 341 341 340 338 339 341 341 341 341 341 341 341 340 340 339 338 337 337 336 335 335 333 331 331 331 331 331 332 332 331 331 330 330 331
307 306 304 304 305 304 304 305 305 305 305 303 303 305 303 303 304 305 307 307 306 308 309 306 305 306 306 307 308 308 308 308 308 308 308 309 309 309 309 310 311 311 316 328 337 339 338 339 339 340 341 341 341 341 340 340 340 341 341 341 341 341 341 341 340 340 339 338 337 337 336 335 335 334 332 331 331 330 330 331 331 330 330 330 330 330
308 308 305 304 305 305 304 304 305 306 306 303 303 304 304 305 306 306 308 308 307 310 311 307 307 308 307 309 312 309 308 308 307 308 308 309 309 309 310 310 310 311 312 321 335 340 338 337 337 339 341 341 341 341 341 340 341 341 341 341 341 341 341 341 340 340 340 338 337 337 336 336 335 334 333 332 330 330 330 331 331 330 330 331 331 330
306 307 306 305 304 303 304 304 304 304 305 304 303 303 303 305 307 307 309 308 307 310 311 309 310 312 311 312 313 310 309 308 307 308 307 308 309 308 309 309 309 311 310 315 330 340 340 338 336 338 340 340 340 341 341 341 341 341 341 341 341 341 341 341 340 340 340 339 338 337 336 335 335 334 333 333 332 330 330 331 331 331 331 332 332 332
307 307 307 306 305 303 304 305 303 304 306 305 303 303 304 305 307 307 307 309 309 309 310 309 309 310 310 312 311 310 310 309 308 309 308 307 308 309 312 314 314 313 311 313 324 337 341 340 338 338 339 340 340 340 341 341 340 340 340 341 341 341 341 341 340 340 340 339 338 337 336 335 335 334 334 333 332 330 330 331 331 331 331 332 332 333
307 307 307 305 306 305 303 303 303 303 304 305 303 304 305 306 308 308 308 310 310 308 309 310 310 310 310 313 316 314 311 310 310 312 313 312 311 312 316 319 319 317 315 312 319 332 340 341 341 340 340 339 339 339 340 340 338 338 339 340 340 341 341 341 340 340 340 339 338 337 336 335 335 335 335 334 332 330 330 330 331 331 331 332 333 333
306 307 308 305 306 306 303 303 305 304 302 303 304 304 307 307 307 309 309 308 308 308 309 311 310 311 311 313 316 316 313 314 317 319 322 321 317 316 318 320 320 320 317 313 316 329 339 341 340 341 341 340 340 339 339 338 338 339 340 340 340 340 340 340 341 340 340 339 338 338 336 335 335 335 335 335 333 331 330 329 330 329 330 332 333 334
307 308 309 306 304 306 305 304 307 308 303 302 303 303 306 308 308 310 310 308 309 310 310 311 310 310 313 314 315 315 315 317 320 321 324 324 319 316 318 319 319 321 319 314 316 326 336 339 339 340 341 340 340 340 340 339 340 340 340 340 340 340 340 341 341 340 340 339 338 338 337 336 336 336 336 336 334 332 330 329 329 329 330 333 334 334
307 307 308 307 305 306 307 306 309 309 305 303 304 304 306 307 307 310 309 308 310 309 309 310 310 312 317 318 317 314 314 316 318 320 322 321 317 317 318 318 317 320 321 316 316 324 332 336 338 339 340 341 340 340 340 340 340 340 340 340 340 340 340 341 341 340 339 339 339 338 337 337 336 336 336 336 336 333 331 329 329 329 332 334 335 334
308 307 307 308 307 306 307 307 307 307 306 306 306 306 308 307 306 308 308 308 309 309 310 310 310 314 317 318 318 315 313 314 315 319 321 318 316 316 317 317 317 320 323 319 317 323 330 334 337 339 341 342 341 341 341 340 340 340 340 340 340 340 340 340 341 340 340 339 339 338 337 337 337 337 337 337 337 334 332 330 329 330 333 335 335 334
308 307 307 307 307 307 307 306 306 306 306 307 306 306 307 307 308 307 307 309 310 309 310 310 310 315 318 319 320 316 313 312 312 316 318 315 314 316 317 317 317 319 324 322 318 322 330 333 335 339 340 342 341 341 341 340 340 340 340 340 340 340 340 341 341 340 339 339 339 338 337 337 337 337 337 338 337 335 333 331 330 331 335 336 335 335
307 307 308 308 308 308 306 305 305 306 306 306 307 307 305 306 307 305 307 312 313 311 311 311 311 316 319 321 318 313 312 311 311 313 314 313 314 316 316 317 318 321 326 325 320 323 330 333 336 338 339 341 341 341 341 341 340 340 340 340 340 340 340 341 341 340 339 339 339 338 338 338 338 337 338 338 337 335 333 331 330 333 335 336 336 335
308 308 308 308 310 310 309 308 307 306 306 307 310 308 306 306 306 305 308 311 311 311 311 310 311 312 315 316 313 312 313 312 311 311 312 313 314 316 316 317 319 323 327 327 322 324 330 334 336 338 339 340 341 341 341 341 341 340 340 340 340 340 340 341 341 340 339 339 339 338 338 338 338 338 338 338 337 335 333 331 331 334 335 335 335 335
308 309 309 309 311 311 311 311 309 308 308 308 310 308 306 307 306 306 309 311 310 311 312 311 310 309 310 311 310 312 313 312 311 311 311 312 314 315 317 318 320 323 328 330 326 325 330 335 337 338 339 340 340 341 341 341 341 340 340 340 339 339 340 340 340 339 338 339 338 338 339 338 338 338 338 338 337 334 333 331 332 334 334 334 335 336
308 309 308 309 310 310 310 310 309 310 310 309 309 309 307 306 306 307 310 311 311 310 312 315 314 310 310 310 311 314 313 311 311 312 311 311 313 315 317 318 321 325 329 332 329 327 330 335 337 338 340 340 340 341 341 341 341 340 340 340 339 339 339 339 339 338 338 338 338 338 339 339 338 338 339 338 336 334 332 331 332 334 334 334 335 335
309 309 309 309 309 309 309 309 308 309 310 309 310 311 310 307 306 306 307 310 312 311 311 314 316 313 311 311 313 314 311 310 311 312 311 311 313 316 318 319 320 325 331 333 331 328 329 334 337 338 339 340 340 341 341 341 341 340 340 339 339 339 339 339 339 338 338 337 337 338 338 338 338 338 339 338 335 334 332 331 333 334 333 334 335 335
310 309 309 310 309 309 309 309 308 308 308 308 308 310 311 308 307 307 306 308 312 312 310 312 315 315 312 310 312 312 310 310 311 311 311 312 314 316 318 318 319 322 329 334 334 331 329 333 336 338 339 340 340 341 341 341 341 340 340 339 339 339 338 339 338 338 338 337 337 337 337 337 337 338 339 337 335 333 332 332 334 333 333 335 336 335
310 310 310 310 310 310 309 309 309 308 308 308 309 310 311 310 308 307 307 308 310 311 311 311 313 313 311 310 310 311 310 309 309 311 312 314 315 317 318 318 318 318 325 334 337 332 329 333 336 337 338 339 340 341 341 341 341 340 340 340 339 339 339 338 338 338 338 338 337 336 336 337 337 338 338 337 335 334 334 334 333 333 334 335 335 334
309 311 311 311 311 312 312 312 311 309 309 310 311 312 312 311 309 307 306 308 310 310 310 311 312 312 311 310 310 310 309 311 313 314 313 314 316 317 318 317 318 317 319 330 337 333 330 333 335 336 338 338 339 340 340 341 341 340 340 340 339 339 339 338 338 338 338 338 337 336 336 336 337 338 338 337 335 335 334 334 334 335 335 333 332 333
309 311 312 312 313 313 313 314 313 311 311 312 313 313 313 313 312 309 307 308 309 309 310 311 311 311 310 311 311 310 310 314 318 315 313 315 316 317 317 316 318 317 317 326 336 335 331 333 336 337 338 339 339 340 340 340 340 340 340 340 339 339 339 339 339 338 338 337 337 337 336 336 337 338 338 336 334 333 334 335 335 335 334 331 331 332
310 310 311 312 313 313 313 315 314 312 313 313 313 313 314 314 313 313 312 311 310 309 310 311 310 311 314 315 315 314 313 314 316 314 313 315 316 316 317 316 317 318 316 323 334 336 333 333 336 336 338 339 339 339 340 340 340 339 339 339 339 339 339 339 338 338 338 337 337 337 336 336 337 338 338 336 334 333 335 335 334 334 334 331 331 332
311 310 311 312 313 314 314 314 314 314 314 314 311 311 313 314 314 315 316 315 313 312 312 314 314 316 318 319 319 320 317 315 314 314 315 316 316 316 317 316 316 317 315 319 330 337 336 334 336 337 337 338 339 339 339 340 339 339 339 338 339 339 339 339 338 338 338 337 337 337 336 336 336 337 338 337 334 333 334 333 333 335 333 331 331 331
312 311 311 311 313 314 314 314 316 316 315 313 312 312 313 313 313 315 316 315 316 317 317 319 318 318 319 320 320 320 319 318 318 319 319 317 315 315 316 316 316 317 316 316 323 333 338 336 336 337 337 338 339 339 339 339 339 339 339 339 339 339 339 339 338 338 338 337 338 337 336 336 336 337 338 336 334 334 333 333 334 334 331 330 331 330
313 312 311 311 313 314 314 315 317 316 314 313 313 313 314 313 313 315 317 317 318 319 318 318 317 315 317 319 319 319 320 320 321 321 318 315 315 317 318 319 320 320 319 317 318 328 337 338 337 337 338 338 339 339 339 339 339 339 338 338 339 339 339 339 339 338 338 338 338 337 336 336 336 338 338 336 336 336 334 333 333 331 330 330 330 330
314 314 312 312 314 314 315 316 316 315 314 314 314 314 314 315 315 316 317 317 318 318 318 318 317 315 316 318 320 320 320 320 321 319 315 314 317 321 323 325 325 323 321 320 318 324 334 338 338 338 338 338 339 339 339 339 339 339 339 338 339 339 339 339 339 338 338 338 337 337 336 336 337 338 337 335 336 336 334 333 332 331 331 331 330 331
313 314 312 313 314 314 315 317 318 317 315 314 313 313 313 315 315 315 316 318 318 317 317 318 318 318 318 319 320 320 320 323 324 320 317 317 321 325 326 327 326 324 324 323 320 323 332 338 338 338 338 338 338 339 339 339 339 339 339 339 338 339 339 339 339 338 338 338 337 336 336 337 337 337 336 336 336 335 334 333 331 331 332 331 331 331
313 315 313 313 314 315 316 317 318 317 315 313 313 313 313 314 315 315 317 320 318 316 317 318 318 319 320 320 320 321 322 326 326 322 320 322 325 327 328 327 325 326 327 326 322 325 333 337 338 338 339 338 338 339 339 339 339 339 338 339 339 339 339 339 338 338 337 337 337 336 336 337 337 336 336 337 335 334 334 332 330 331 331 331 332 331
312 314 313 312 313 314 316 317 317 316 314 314 314 314 314 314 314 315 318 319 317 315 317 318 318 319 320 320 321 321 323 324 324 322 322 324 326 327 329 328 327 327 328 328 324 327 334 338 337 338 339 338 339 339 338 339 339 338 338 338 338 339 339 338 338 337 337 337 336 337 337 337 337 337 336 335 333 334 334 331 330 331 331 332 332 331
311 312 312 312 312 313 315 316 317 316 315 314 314 314 314 314 315 316 318 317 316 316 318 318 318 319 320 320 321 321 322 322 322 322 323 325 326 328 329 329 329 329 330 329 325 327 333 337 337 338 338 338 339 339 339 339 338 338 338 338 338 339 338 338 338 337 337 337 337 337 337 336 336 336 335 333 333 334 333 331 331 332 332 333 332 330
310 310 310 310 311 313 314 316 317 317 315 314 314 314 314 315 316 316 316 316 316 318 318 317 318 319 319 320 320 320 321 321 321 322 323 325 327 328 329 330 330 330 330 329 326 325 329 333 336 338 338 338 339 339 338 338 338 338 338 338 338 338 337 338 337 337 337 337 336 336 337 336 335 334 334 334 333 332 330 331 332 332 333 333 331 330
311 309 308 309 311 311 313 315 316 315 313 313 314 313 313 314 315 315 316 317 317 317 317 317 318 318 318 319 320 320 320 320 321 321 323 326 327 328 329 330 330 330 331 330 327 326 329 331 333 337 338 337 338 338 338 338 338 338 338 338 338 337 337 337 337 337 337 337 336 336 336 335 335 334 334 335 334 331 330 332 333 333 333 332 331 330
311 308 306 308 310 310 310 312 313 312 311 312 313 313 312 312 313 315 316 317 316 317 317 318 318 318 318 319 319 319 319 320 321 322 322 325 328 328 329 330 330 330 331 330 328 328 329 330 332 335 337 337 337 338 338 338 338 338 338 338 337 337 336 336 336 337 337 337 337 336 336 335 335 334 333 334 334 333 332 333 333 333 332 332 331 330
308 305 306 308 309 309 310 310 310 310 310 310 311 310 310 311 312 314 316 316 316 316 317 318 318 318 318 319 319 319 319 320 321 322 322 324 326 328 329 330 330 330 330 330 330 329 329 329 331 333 335 337 337 337 337 338 337 338 337 337 337 336 335 334 335 336 337 337 337 336 336 335 334 333 332 334 335 335 334 333 333 333 332 332 331 330
305 304 306 307 308 308 309 309 309 309 308 308 308 308 309 310 311 312 313 314 314 315 316 318 318 318 319 319 319 319 319 321 322 322 322 323 325 327 329 329 330 330 330 330 331 330 330 330 331 332 334 335 336 337 337 338 337 337 337 336 336 335 335 334 334 335 336 336 336 335 334 334 334 334 334 335 336 336 334 333 333 333 332 332 331 330
305 304 305 306 307 308 308 308 307 307 307 308 309 309 309 310 310 310 311 311 312 314 316 318 318 319 319 319 318 318 320 322 322 323 323 323 325 326 328 329 330 330 330 330 331 331 331 331 331 331 333 334 335 336 337 338 337 337 337 336 334 334 335 334 334 335 335 334 334 333 332 333 334 334 334 334 335 335 335 334 333 333 332 332 331 330
305 304 305 307 308 308 307 306 306 307 308 309 309 309 310 310 311 312 313 313 313 315 318 319 319 319 319 319 319 319 320 322 323 323 323 324 325 326 328 328 329 329 329 329 330 330 331 331 331 331 332 333 335 336 337 337 337 337 337 336 334 333 334 335 334 334 334 333 333 333 332 332 334 334 333 333 334 333 333 333 333 332 331 330 329 328
304 304 306 307 307 307 307 306 306 308 309 309 310 310 311 311 311 313 316 316 316 318 319 319 319 319 319 319 319 318 320 322 323 323 324 324 325 327 328 328 329 329 329 329 329 330 330 331 332 332 332 333 334 336 336 337 337 337 337 336 334 333 334 335 334 334 334 333 333 333 333 333 334 334 333 333 333 333 333 333 332 332 331 329 328 327
304 305 305 305 306 307 307 306 306 307 308 309 309 310 311 311 312 313 314 315 317 319 319 319 319 319 319 319 319 319 320 322 323 323 324 325 326 327 328 328 329 329 329 329 329 330 330 330 331 332 332 332 334 335 336 337 336 336 336 335 335 334 334 335 334 333 333 333 332 334 335 334 334 334 333 333 333 332 332 332 331 331 330 329 328 327
305 305 304 305 306 307 306 306 307 307 308 309 309 310 311 311 312 312 313 315 316 318 319 319 319 319 319 320 320 320 322 323 323 323 324 325 326 328 328 328 328 328 328 329 329 329 329 330 331 332 332 332 333 334 335 335 335 335 335 335 335 334 333 333 333 332 333 332 332 334 335 335 334 333 333 333 333 332 331 331 330 330 330 328 327 327
Wind_Speed
1 2 3 4 5 5 6 7 8 4 3 3 3 4 4 4 7 5 4 6 4 4 6 8 15 15 10 8 7 11 17 16 20 24 25 28 24 20 26 33 36 39 40 37 40 46 46 44 43 44 44 42 41 41 41 39 38 38 38 36 35 34 33 32 33 35 37 38 37 36 35 33 32 30 28 26 26 26 23 22 20 19 18 17 14 13
1 3 5 5 6 7 7 6 6 4 4 4 4 5 5 5 7 6 4 6 3 3 7 10 15 17 14 10 7 9 12 12 15 17 21 28 27 23 25 32 37 39 39 38 41 45 44 42 43 44 44 42 42 43 42 41 40 40 39 38 36 35 35 35 34 35 38 38 38 38 37 35 33 32 30 28 28 26 24 22 20 18 18 17 15 14
3 6 7 5 6 5 5 5 5 5 5 5 4 4 6 4 5 5 4 5 3 3 8 11 13 16 15 12 10 8 8 15 23 21 23 29 27 25 25 31 36 38 40 42 42 43 43 44 44 45 45 43 43 43 42 42 41 40 41 40 38 37 37 36 35 34 36 37 38 37 35 34 33 32 31 29 27 25 24 22 20 18 17 17 17 15
4 6 5 5 6 5 4 4 5 5 4 4 4 3 6 4 2 4 2 3 4 5 7 9 11 12 12 10 8 9 12 19 28 28 29 32 30 29 29 31 35 38 41 42 41 41 43 43 44 46 46 44 43 42 42 42 42 42 43 42 40 38 37 37 35 34 34 36 37 35 33 33 32 31 31 29 28 26 24 23 20 18 18 18 17 16
10 8 2 2 4 6 5 5 4 4 3 4 6 6 7 6 5 6 5 4 4 6 8 8 9 9 10 10 7 8 12 16 24 27 28 33 35 33 32 31 35 39 42 43 41 41 42 43 45 48 48 47 45 44 44 43 43 44 45 44 41 39 38 37 35 34 35 36 36 36 35 34 33 32 32 32 30 28 26 25 22 19 19 19 18 16
12 10 6 4 4 5 5 5 5 5 3 4 6 10 11 9 7 8 7 4 3 6 7 4 5 7 5 6 7 7 7 11 16 18 20 29 34 32 31 31 33 38 42 43 44 44 44 45 47 48 49 49 48 47 46 45 45 44 45 45 42 40 38 37 36 35 36 37 38 39 39 38 37 36 35 34 32 30 28 25 22 20 20 20 18 17
5 4 7 8 8 6 5 7 5 6 4 5 5 8 10 10 9 9 8 4 2 5 4 4 4 7 4 3 7 6 7 9 11 11 14 23 30 30 30 32 33 36 39 40 42 45 47 47 47 48 49 50 51 51 48 47 47 45 45 45 44 41 39 38 37 37 37 38 39 40 41 40 39 38 36 34 30 29 27 24 21 21 22 21 19 18
1 2 6 8 8 7 6 6 5 8 6 5 3 6 8 9 9 10 9 5 5 6 5 3 4 7 7 5 6 6 6 8 9 10 11 15 23 28 30 34 34 37 40 40 41 44 46 48 48 49 50 53 54 53 51 50 49 46 45 46 45 43 40 38 38 38 38 38 40 41 41 40 38 37 35 32 29 27 25 23 22 22 23 22 21 19
1 1 4 6 6 6 6 5 7 9 6 6 3 5 7 7 8 9 7 5 5 5 6 7 5 6 8 5 5 6 7 9 11 13 14 13 20 26 29 34 36 37 41 42 43 44 46 48 49 49 50 53 55 54 53 52 49 47 47 47 46 44 42 40 39 38 38 38 39 40 41 41 39 36 34 31 29 27 25 24 23 23 24 23 22 20
3 4 4 3 3 4 4 5 7 9 7 6 4 3 4 5 6 7 5 5 5 4 6 10 7 6 7 3 3 5 7 10 12 13 14 16 21 26 28 32 34 35 38 42 45 46 47 49 49 48 48 52 55 55 54 52 49 48 48 48 48 46 44 42 40 39 39 39 39 40 40 40 39 38 35 31 28 27 26 25 24 24 24 24 23 21
8 12 12 6 6 6 5 6 7 9 8 3 1 2 4 4 4 4 4 4 3 4 8 13 11 8 7 3 4 5 6 9 10 11 14 15 19 24 24 26 30 32 35 39 43 45 46 49 49 48 49 52 54 54 53 51 50 49 49 50 49 47 46 43 40 39 39 39 40 40 40 40 39 38 36 32 29 28 27 26 25 24 24 24 24 22
6 10 8 5 10 9 5 5 5 6 6 2 1 1 3 4 2 2 2 2 2 5 7 11 13 10 8 5 4 6 8 9 9 10 14 14 15 20 20 19 23 28 34 37 41 45 45 46 47 47 48 49 49 49 50 51 51 50 51 51 50 49 47 44 41 40 40 40 41 41 40 40 39 38 35 33 30 29 28 27 26 24 24 25 24 24
4 8 7 5 9 10 5 4 4 4 3 3 2 1 1 3 3 2 3 1 3 5 5 8 10 8 8 7 7 11 13 12 10 12 16 16 17 21 21 19 20 24 31 36 40 44 45 47 48 48 46 45 45 46 49 51 52 51 51 51 51 50 49 46 43 41 41 41 41 41 41 40 39 37 35 33 31 29 28 27 26 25 25 25 25 25
5 4 3 3 5 9 9 5 4 3 3 4 4 3 3 3 1 2 4 2 3 4 4 5 6 5 5 6 10 14 16 18 18 21 25 26 26 26 27 26 24 23 27 34 39 42 46 48 49 50 48 46 46 47 49 52 52 51 51 52 52 51 49 46 44 42 42 42 42 42 41 41 40 37 35 34 31 29 28 27 26 25 24 24 24 24
2 5 1 3 2 6 10 9 6 5 4 5 5 4 4 4 3 4 4 3 4 3 4 5 3 4 5 5 10 13 18 22 25 28 30 31 31 29 29 30 27 25 26 31 37 41 46 50 51 51 50 48 48 50 51 52 52 52 52 52 52 51 49 47 45 44 43 43 43 42 42 41 40 38 36 33 31 29 28 26 26 25 23 22 22 22
2 6 5 5 4 4 6 6 5 6 5 4 4 4 5 6 4 3 3 3 1 1 3 3 3 4 5 6 8 11 15 19 22 23 22 24 27 25 24 26 26 27 29 31 37 40 44 50 52 53 52 51 51 51 52 53 53 53 53 53 52 51 50 48 46 45 44 44 43 43 43 42 40 39 37 34 32 30 28 26 25 25 24 22 21 22
2 5 4 4 7 6 8 7 6 7 5 2 4 5 4 4 4 2 3 1 3 1 3 1 3 6 5 8 11 12 13 14 15 14 13 17 20 15 13 15 18 23 28 30 37 42 44 49 53 53 52 52 52 53 53 54 54 55 54 54 53 51 50 49 46 46 45 45 44 43 43 42 40 39 37 34 32 30 28 26 25 25 24 22 21 22
2 6 4 4 8 7 8 8 6 7 6 3 3 5 1 2 2 2 1 2 2 3 4 1 5 7 5 6 9 9 10 11 11 8 6 9 9 6 8 10 11 15 23 30 36 42 47 50 53 52 51 52 53 54 55 56 56 56 55 54 53 52 51 49 47 47 46 45 45 44 43 42 41 39 37 34 32 30 29 27 26 26 25 22 21 22
1 5 4 4 5 6 2 3 3 7 8 4 3 3 3 1 1 1 1 2 2 3 3 3 5 6 5 5 5 3 2 4 5 4 4 5 4 6 11 11 11 11 17 29 36 41 47 51 53 52 50 51 53 54 56 57 57 56 55 53 52 52 51 49 48 48 47 46 45 44 43 41 40 39 37 34 32 30 29 28 27 26 24 22 22 22
1 2 3 2 3 4 4 1 2 4 5 3 2 1 3 3 2 2 2 2 2 2 2 3 4 4 6 5 4 2 2 2 3 3 4 5 6 9 12 12 13 13 12 25 35 40 44 48 51 52 51 52 53 54 55 56 56 55 54 53 52 50 49 48 48 48 48 47 46 45 43 42 40 39 37 35 33 31 29 28 26 25 24 22 22 22
1 2 4 3 2 3 3 3 5 4 3 3 2 3 3 2 1 1 1 2 3 2 2 2 4 5 5 3 5 5 5 5 5 4 5 7 8 10 13 13 14 14 10 18 32 39 43 47 50 52 52 52 53 54 55 55 55 54 54 53 52 50 49 49 48 48 48 48 47 45 44 43 41 39 37 35 33 31 29 28 27 25 23 23 23 22
2 2 4 5 3 3 6 6 6 5 5 4 3 3 4 4 3 1 3 2 3 2 3 3 4 6 5 3 5 6 8 9 7 5 5 7 10 13 14 13 13 14 12 11 29 39 43 47 49 51 52 52 52 53 53 53 52 52 52 51 51 50 50 50 49 49 49 49 47 46 45 43 41 39 37 35 33 31 29 28 27 25 23 22 23 22
3 1 4 6 6 8 11 8 7 7 4 2 2 3 3 3 4 4 4 3 2 2 1 2 4 7 4 3 5 8 10 10 10 8 6 9 13 16 16 14 13 13 13 7 23 36 43 47 50 51 52 52 52 52 51 51 51 52 52 51 51 51 51 51 49 49 50 49 48 46 45 44 42 40 37 35 33 31 30 28 26 24 23 21 21 22
3 1 4 6 6 7 9 5 4 4 1 1 3 4 5 3 2 3 3 2 2 2 2 2 4 7 4 2 5 11 13 13 12 10 9 12 16 17 18 18 15 13 14 8 16 33 41 45 48 50 52 53 52 51 50 50 50 51 51 51 51 51 51 51 50 49 50 49 47 46 46 45 43 41 38 35 33 32 30 28 26 24 22 21 21 23
4 2 2 3 4 4 4 3 2 2 1 3 4 4 6 6 4 3 2 2 2 5 6 4 5 7 5 5 8 12 15 16 14 12 13 15 16 19 21 20 17 16 16 12 10 27 37 43 47 49 51 52 52 50 50 50 50 51 51 52 52 52 51 51 50 50 49 49 47 47 46 45 44 41 38 35 33 32 30 28 26 24 21 21 22 23
4 2 3 3 4 3 3 1 1 0 2 3 3 4 7 9 9 5 1 3 4 5 5 4 6 8 9 11 12 11 13 16 14 13 16 16 16 19 21 21 20 19 17 14 8 21 35 41 45 48 49 49 50 50 50 49 50 51 51 52 53 52 51 51 51 50 49 48 48 47 47 46 44 42 38 35 34 32 30 29 27 24 22 22 23 23
1 3 5 6 7 5 5 5 3 2 2 3 5 5 6 9 11 7 3 4 5 4 3 5 7 10 13 14 12 11 14 16 12 12 15 18 19 21 22 22 22 20 19 16 10 17 31 39 42 45 47 47 49 49 50 51 51 51 51 51 51 50 50 51 51 50 49 48 48 48 47 46 44 41 37 35 33 31 31 30 27 24 22 22 24 24
2 4 6 8 12 11 9 11 8 4 5 6 6 6 6 6 7 7 7 6 4 2 6 8 8 9 14 14 11 13 17 15 11 10 13 19 25 26 23 24 24 23 23 19 12 15 28 38 40 43 45 47 48 48 49 50 51 51 51 51 51 49 49 50 50 50 49 48 48 48 47 45 43 40 36 33 32 31 30 29 26 23 23 24 26 24
2 4 4 5 11 13 11 12 12 7 7 8 8 8 7 6 7 10 12 9 6 6 10 8 7 9 12 13 12 14 16 13 12 15 19 23 26 24 21 23 25 27 28 23 16 14 26 37 40 42 45 47 48 48 47 48 48 49 49 49 49 48 48 49 50 50 49 49 49 48 46 44 42 39 35 32 31 30 29 27 24 23 24 25 25 22
1 4 4 4 10 12 10 13 13 9 7 8 9 10 9 9 10 11 12 10 9 11 13 10 9 11 13 14 14 16 18 17 16 20 23 23 22 19 18 22 25 26 27 24 18 14 24 35 39 42 45 47 48 49 48 48 48 48 48 47 46 46 47 48 49 49 49 49 49 47 45 43 41 38 34 31 30 29 28 25 24 24 24 24 22 21
4 4 3 3 6 11 8 8 10 10 9 9 8 8 8 8 9 9 10 9 8 11 13 13 13 13 14 13 10 14 18 16 15 17 19 21 21 16 16 21 24 24 24 22 16 14 24 34 38 41 44 46 48 49 49 49 49 49 48 47 47 47 47 48 48 49 49 48 48 46 43 41 40 37 34 31 29 29 27 26 26 27 25 24 22 23
4 3 3 1 3 7 4 2 6 8 7 6 6 6 6 6 6 7 7 7 9 11 12 11 10 10 11 9 7 11 14 10 9 12 16 20 20 14 14 20 23 22 22 20 14 14 24 33 37 40 43 45 47 48 48 48 47 48 48 47 47 48 48 48 49 49 49 48 47 45 41 39 38 37 34 32 29 28 28 28 28 28 26 24 22 23
3 3 3 2 3 6 4 2 2 2 2 1 4 4 4 4 4 4 5 5 7 8 8 7 7 7 7 8 8 13 14 9 10 14 17 19 20 17 17 19 19 19 20 17 12 12 22 31 36 39 41 42 44 47 48 48 48 48 48 49 49 48 48 48 48 48 48 47 46 44 40 38 37 37 36 32 28 28 30 29 28 29 27 25 23 22
3 4 3 1 2 5 6 5 2 3 2 1 2 2 3 4 4 5 7 8 6 4 4 5 5 6 8 8 8 11 14 16 18 22 23 21 20 19 18 16 16 18 20 18 11 10 17 27 33 36 38 40 42 44 46 47 48 48 48 48 48 48 49 49 48 48 47 46 45 43 40 38 37 38 37 32 27 28 29 28 29 29 28 25 23 22
5 4 3 1 2 3 4 4 3 2 0 2 2 4 5 5 5 7 9 8 5 1 2 4 6 9 9 10 12 13 18 24 26 27 25 19 13 12 14 16 19 21 22 21 13 9 14 21 29 33 36 39 40 42 42 43 45 45 45 45 46 46 48 48 48 48 47 46 45 42 40 39 38 39 38 32 28 28 27 27 29 28 26 25 24 23
7 5 3 1 2 2 2 3 1 1 2 3 3 5 6 4 4 5 5 5 3 3 4 5 7 10 11 13 16 18 23 28 27 23 16 6 5 12 16 21 25 25 25 23 15 10 13 17 25 30 33 36 39 40 41 42 42 42 42 43 44 45 46 46 46 46 46 46 44 42 41 39 40 41 38 33 31 30 27 27 28 27 25 24 24 24
5 4 3 1 0 1 3 3 1 1 2 3 2 4 6 6 6 3 2 4 4 2 7 9 8 9 12 13 16 21 24 21 16 12 5 5 15 25 27 28 30 27 25 24 16 10 13 17 23 27 31 35 37 38 40 41 41 41 42 43 44 44 44 44 45 45 45 45 44 43 42 41 42 41 36 33 33 31 28 27 27 27 26 25 24 26
4 1 2 3 1 0 2 3 2 4 2 3 5 9 11 13 10 5 2 3 4 1 8 12 10 9 10 10 13 17 16 9 5 6 9 19 30 34 32 30 29 26 25 22 14 9 13 16 21 26 30 33 35 37 39 40 40 41 41 42 43 44 44 44 45 45 45 45 45 43 42 42 42 39 36 35 34 31 29 27 26 26 26 25 26 26
5 1 1 2 2 3 3 2 2 2 1 5 9 12 18 20 12 3 2 3 3 3 10 13 12 11 9 9 12 12 8 5 3 7 19 32 37 35 33 30 27 25 24 18 9 6 12 15 19 25 29 32 34 36 37 38 39 40 41 42 43 44 44 45 46 46 46 46 45 43 42 42 40 37 35 34 32 30 29 27 26 27 25 24 24 23
7 4 3 4 6 7 6 3 1 1 1 7 11 15 24 23 9 1 1 3 4 11 16 14 13 13 12 13 13 7 2 3 6 15 30 38 36 33 30 28 26 25 23 16 5 6 12 15 18 23 28 31 33 34 35 36 38 39 41 42 42 43 45 46 47 47 46 45 44 43 42 41 38 36 34 32 30 30 28 25 26 27 27 28 26 22
7 5 5 6 6 8 7 4 2 1 2 5 12 20 27 20 5 2 4 7 11 18 22 18 16 18 18 17 13 7 7 11 15 26 35 35 32 31 27 25 26 23 19 14 4 8 11 14 17 20 23 27 29 31 32 34 36 38 40 41 42 44 46 47 46 44 43 44 43 42 41 39 36 34 32 29 27 27 26 26 27 26 28 30 27 21
6 5 5 6 6 6 4 2 3 2 2 7 17 21 18 9 3 3 11 17 19 20 21 21 20 20 21 20 17 18 23 26 25 27 31 30 30 30 27 26 26 21 18 12 4 11 12 13 16 18 21 24 26 28 30 31 34 38 40 41 43 45 46 45 43 42 42 43 42 41 40 37 35 32 29 28 26 24 26 29 30 29 29 27 23 20
4 4 5 5 5 4 4 3 4 3 6 16 21 13 6 5 7 12 16 21 23 21 20 21 21 21 23 23 22 24 30 33 31 29 29 28 27 27 27 26 24 21 19 14 4 9 13 13 14 17 20 22 23 25 27 29 33 36 39 41 43 43 42 40 39 40 41 41 41 40 38 36 33 30 28 29 29 26 26 29 31 31 30 27 23 22
2 2 4 3 3 4 5 4 3 4 14 22 18 8 10 17 21 22 18 18 24 26 23 21 23 25 26 25 25 26 26 30 32 32 30 28 26 25 25 24 21 18 17 16 11 6 8 10 11 15 18 20 21 22 25 27 30 34 37 39 39 39 38 36 36 38 40 40 40 38 36 33 31 29 30 32 32 30 29 29 30 30 30 28 25 22
3 3 3 3 2 3 4 7 10 14 20 24 21 18 22 25 26 25 21 19 24 27 25 24 27 30 30 27 26 25 24 25 28 30 30 29 26 25 24 23 20 17 16 16 14 10 8 8 9 12 16 19 20 22 25 28 29 29 32 36 38 37 35 34 35 37 38 39 38 35 33 32 31 30 32 34 35 33 32 30 30 30 29 26 24 22
7 6 3 2 4 6 8 13 16 16 22 30 31 26 22 22 25 26 23 22 26 28 26 26 27 31 32 28 24 23 22 21 23 27 28 28 27 25 24 23 19 15 14 15 15 11 10 10 11 12 15 18 20 21 26 29 28 25 28 34 37 36 35 37 39 39 38 37 35 32 31 32 33 35 37 38 37 35 32 29 29 30 27 23 23 23
4 4 3 3 4 5 6 9 12 18 27 33 31 26 24 28 33 32 26 25 28 29 28 27 27 29 30 27 23 22 19 17 19 22 24 25 25 22 19 18 17 15 14 14 14 13 11 12 13 13 15 18 19 21 24 27 27 27 30 33 33 32 34 37 39 39 37 34 31 30 31 33 37 41 41 39 37 35 32 29 29 30 27 22 24 25
3 5 5 4 4 4 7 12 20 29 29 25 24 28 32 37 40 38 33 30 29 29 29 27 26 27 28 27 24 21 17 16 16 17 19 21 21 18 16 15 15 15 15 14 15 15 13 13 14 14 15 17 19 21 25 28 29 31 34 34 31 29 31 34 34 34 33 31 30 31 31 32 36 39 38 35 35 34 32 30 31 30 25 20 21 22
6 6 6 4 5 7 8 12 22 28 24 27 37 43 42 42 42 39 37 35 32 30 29 28 28 27 27 27 26 20 16 16 15 13 14 17 17 16 16 15 14 14 15 15 15 15 15 15 14 14 15 18 20 23 27 29 31 34 35 34 31 29 31 33 31 30 30 31 31 35 36 33 32 34 34 34 34 33 31 30 29 28 22 17 15 15
5 5 5 4 5 5 6 13 19 15 11 24 40 45 44 42 39 38 38 37 34 32 31 29 30 30 29 29 27 20 16 17 15 12 12 13 13 13 13 13 13 13 13 13 13 14 16 15 14 14 15 18 20 24 28 30 32 34 33 32 32 32 32 32 29 28 31 32 32 36 39 36 32 32 34 33 33 34 33 31 29 27 23 18 15 13
5 4 4 5 5 7 13 21 23 14 12 24 37 42 42 38 34 37 39 36 33 33 31 29 30 31 31 31 27 20 18 19 18 14 12 10 9 10 11 11 12 12 12 12 13 13 14 14 13 12 14 16 18 22 26 29 31 33 31 30 32 34 34 33 31 32 35 36 34 36 39 36 33 33 33 33 33 33 32 30 29 28 25 20 16 14
Wind_Direction
68 249 249 221 208 200 208 211 217 248 309 277 270 270 253 257 266 255 253 279 305 306 272 264 275 280 279 268 271 294 297 285 272 272 269 267 263 243 225 222 220 221 228 234 236 231 225 222 222 220 221 220 217 213 210 209 211 212 211 211 210 208 205 203 200 197 197 199 199 201 202 202 201 203 205 206 210 212 209 207 207 208 209 210 216 220
3 251 244 219 208 202 203 209 212 237 271 262 261 276 266 246 264 267 241 255 283 297 272 271 280 281 278 274 272 277 285 281 269 269 269 265 261 248 228 223 222 222 227 231 231 229 224 222 220 218 220 219 217 214 211 212 213 212 212 213 213 210 208 205 201 198 198 200 202 203 203 202 201 203 204 205 209 211 210 208 208 210 211 215 221 226
295 256 245 209 191 188 199 200 198 216 232 240 242 267 271 261 277 277 230 231 235 232 265 272 273 275 274 269 264 251 247 264 267 265 268 268 262 250 233 224 224 221 222 224 224 224 223 222 219 217 218 219 220 217 212 212 212 212 214 215 215 214 212 207 203 202 201 203 205 206 206 205 204 205 205 205 209 212 211 211 211 213 215 218 223 227
259 255 240 199 183 180 220 217 200 226 237 227 228 249 262 261 279 276 252 246 245 229 256 273 274 276 276 269 258 240 234 256 268 269 270 270 265 256 244 231 225 221 220 221 220 220 221 219 216 215 217 218 219 217 214 213 214 215 215 215 215 215 215 210 205 205 205 205 207 207 209 210 208 208 207 207 209 212 213 213 214 215 217 219 221 224
245 245 217 171 183 188 230 240 210 229 255 230 215 226 251 252 231 240 263 284 278 262 260 276 287 280 270 265 256 241 237 250 264 268 269 268 266 262 254 239 230 226 224 220 218 217 218 216 216 216 217 218 218 217 217 217 218 217 215 214 215 216 216 213 208 207 207 206 206 205 207 210 211 210 210 209 208 210 213 214 215 217 218 219 221 224
256 247 227 245 234 193 211 242 214 193 238 265 224 220 237 246 241 244 262 283 309 280 257 241 268 279 281 266 248 230 232 244 255 259 259 260 263 260 253 243 232 229 228 223 221 220 219 218 217 216 216 217 218 220 221 221 221 219 216 215 215 215 216 214 211 210 209 208 207 206 207 208 209 209 211 211 209 208 212 214 215 219 220 220 222 226
267 226 194 227 244 222 218 240 213 165 209 268 219 205 225 234 238 245 251 247 233 262 247 167 219 273 309 288 251 228 221 241 254 262 258 255 257 254 247 242 234 229 228 225 223 222 220 218 216 214 214 215 218 222 224 223 222 219 217 216 215 215 216 215 213 213 212 210 210 211 211 211 211 210 211 212 210 211 214 215 216 220 221 220 223 226
259 229 199 225 244 235 235 239 197 164 196 254 182 172 213 227 231 236 238 228 225 256 275 237 222 266 280 258 248 249 248 261 265 268 267 259 258 255 246 241 234 228 227 225 221 219 218 218 217 216 215 216 220 222 221 220 220 219 217 216 216 216 216 216 216 215 215 214 213 213 214 215 215 214 215 214 212 212 215 218 220 221 221 222 224 226
8 268 214 224 239 236 237 223 186 176 205 256 229 194 215 223 230 236 234 232 234 246 273 265 231 253 272 242 224 248 255 265 269 268 270 265 262 261 253 244 236 229 227 225 222 220 218 218 220 220 219 219 220 219 218 219 220 219 217 216 216 216 216 217 218 218 218 217 216 215 215 216 217 218 219 218 215 214 216 219 222 222 222 223 225 227
283 276 279 256 243 242 239 221 188 180 208 251 254 243 241 231 234 239 231 229 233 223 245 255 233 241 270 233 206 243 236 246 259 265 267 265 264 265 260 252 243 232 227 224 223 222 220 220 222 224 224 223 221 219 219 220 220 218 216 217 217 216 216 218 219 221 221 220 219 218 217 217 217 218 219 219 218 217 218 220 221 222 223 225 227 229
257 265 279 266 232 235 239 237 209 194 210 244 333 311 292 276 243 235 227 208 223 233 239 245 235 238 260 220 196 233 223 227 240 255 264 265 264 264 263 260 251 238 227 223 222 222 222 221 221 222 223 222 220 217 216 217 217 217 216 217 217 216 217 218 219 222 222 222 222 221 220 219 219 218 217 217 216 217 218 220 221 222 224 227 230 230
252 247 260 230 216 219 226 246 232 212 211 205 337 348 337 318 314 304 289 133 193 240 236 239 234 234 249 238 215 244 244 235 232 244 259 262 261 264 268 272 263 245 229 222 219 219 220 220 219 218 218 218 215 211 211 213 216 216 215 216 216 216 217 217 219 222 223 224 224 223 222 221 221 220 218 217 215 215 217 220 221 222 225 227 229 230
269 229 227 220 214 201 201 249 237 233 220 196 223 79 90 293 323 321 278 186 220 248 233 231 230 229 250 247 232 247 254 248 240 240 251 259 262 265 269 273 273 255 233 223 218 216 216 218 218 217 215 214 212 210 210 212 215 215 214 215 215 216 216 216 218 221 223 225 226 225 223 223 223 222 221 219 218 218 219 220 221 223 225 227 228 229
312 280 226 208 222 203 204 228 225 222 203 191 196 152 165 222 250 252 260 257 260 269 266 261 250 240 262 244 217 233 247 242 237 237 242 251 256 261 265 266 267 260 240 226 219 214 213 216 218 216 214 213 212 212 211 212 214 214 213 214 215 216 216 216 218 221 224 225 226 226 224 224 224 224 224 222 222 222 222 223 224 226 229 231 232 233
306 317 251 168 205 195 202 221 220 205 203 202 182 161 184 192 194 224 233 243 258 278 293 299 289 217 229 228 203 216 238 238 236 237 240 247 253 256 261 261 258 256 246 230 221 216 213 215 218 216 213 212 213 213 212 212 213 213 213 214 214 215 216 216 217 220 224 225 226 226 225 225 225 226 226 225 225 226 226 227 227 229 233 235 237 237
210 272 248 224 240 185 198 224 189 180 217 223 160 157 207 193 180 228 222 208 222 325 289 275 261 231 238 255 234 223 233 234 233 237 238 246 253 255 256 258 255 253 249 233 220 216 214 214 217 216 212 212 213 214 213 212 213 213 214 214 215 215 216 216 217 220 223 225 225 225 225 225 225 226 227 227 227 228 229 229 229 232 235 238 240 240
239 265 259 273 274 231 222 223 173 172 200 192 184 207 220 169 150 206 266 348 52 303 272 248 263 277 273 266 262 246 235 230 230 230 231 243 252 254 255 263 265 258 251 237 220 213 213 214 215 215 212 211 213 213 213 213 214 216 216 215 215 214 215 216 217 220 222 224 225 225 225 225 225 226 227 227 229 230 230 229 230 233 236 239 242 242
249 276 264 251 272 266 235 220 206 208 193 131 194 210 157 60 116 132 257 345 35 257 270 239 249 265 258 257 269 254 227 228 234 230 237 251 251 251 259 275 288 271 253 242 224 211 210 212 213 213 212 212 214 214 214 215 216 217 217 216 215 214 215 215 217 220 222 223 224 224 224 224 225 226 227 228 229 231 230 228 229 232 235 238 241 242
219 291 280 213 253 292 286 192 233 245 220 197 211 184 124 147 238 112 165 228 235 254 286 281 263 255 228 239 279 286 229 238 260 271 290 289 269 268 273 286 314 305 258 240 225 211 208 210 213 213 212 213 215 215 216 216 216 216 215 215 216 216 215 215 216 220 222 223 224 224 224 224 225 226 226 227 229 230 229 228 229 230 233 236 238 240
174 280 288 199 224 309 341 165 211 256 225 205 247 222 145 162 188 180 169 165 184 228 283 301 299 266 229 220 213 231 0 339 283 294 285 260 251 271 286 297 319 325 274 238 224 212 209 210 213 214 213 213 214 214 215 215 213 213 214 215 215 214 214 214 216 220 222 223 224 223 223 223 224 226 226 227 228 228 228 228 228 229 231 235 236 237
149 225 262 263 272 306 302 212 200 207 176 158 199 204 187 178 139 169 202 145 139 167 211 256 282 264 249 235 206 229 311 303 266 272 264 249 254 275 291 294 300 317 301 238 221 212 209 210 212 214 215 214 214 214 214 212 211 212 212 213 213 213 213 214 216 220 222 223 223 222 222 222 223 224 225 226 227 227 227 226 226 227 230 235 237 237
180 213 251 278 302 273 244 214 190 183 160 151 173 186 195 194 161 170 243 212 148 157 185 203 266 268 259 267 258 270 296 291 281 277 267 267 272 277 286 288 288 310 323 247 218 211 208 209 211 213 213 213 212 211 210 209 209 209 210 211 212 212 213 214 216 219 222 222 222 222 221 222 223 223 224 224 226 225 224 225 225 225 227 232 238 239
160 219 251 266 270 261 261 243 194 179 158 135 183 207 213 197 170 186 214 213 166 164 185 210 262 273 259 243 276 284 280 280 286 281 271 280 283 284 293 302 301 313 332 278 219 211 208 208 209 211 212 212 212 210 209 208 207 208 210 211 211 212 214 215 216 219 221 221 221 221 221 222 223 223 223 224 224 224 223 223 224 224 226 230 236 238
153 210 249 265 265 268 281 268 186 174 147 218 241 222 213 227 240 220 199 180 191 202 199 225 258 267 269 250 273 283 288 296 297 285 281 289 294 299 306 312 315 321 339 326 224 211 208 209 208 209 210 211 211 210 208 207 207 208 209 210 211 213 214 214 215 217 219 220 220 220 220 221 222 223 223 223 224 223 222 222 223 223 224 228 235 237
178 207 220 272 292 303 329 13 36 17 153 220 247 214 205 218 240 281 280 170 232 232 209 220 262 263 276 289 281 287 298 303 296 284 287 291 296 304 310 317 322 326 341 343 245 215 209 208 208 208 209 209 209 209 208 207 206 207 208 210 212 214 213 212 213 215 217 219 219 219 220 221 222 222 222 223 223 222 220 221 221 220 221 225 233 236
191 225 177 252 278 286 302 315 108 158 204 237 257 215 201 204 208 223 223 168 228 241 205 210 259 270 280 282 281 290 294 290 289 294 300 301 297 299 309 322 328 329 339 343 288 224 213 210 208 208 208 207 207 207 207 206 206 206 207 210 212 213 211 211 213 214 215 216 217 218 219 220 221 222 221 222 222 221 219 220 219 218 219 223 231 234
238 258 199 236 245 236 255 253 217 169 194 248 264 243 213 206 204 194 163 191 216 242 243 225 238 267 280 279 286 297 288 283 292 302 305 309 306 303 312 325 331 334 339 341 309 237 218 212 209 207 206 206 206 207 207 206 206 206 206 208 210 210 209 209 211 211 212 214 216 217 218 220 222 222 221 221 221 220 219 219 219 217 217 224 231 232
305 270 209 225 239 236 242 256 258 237 238 248 255 259 247 225 206 191 210 220 181 197 262 242 220 247 268 273 281 282 278 282 291 293 299 307 306 306 317 329 335 342 345 339 313 248 220 212 209 206 205 205 205 206 207 206 206 206 207 209 208 207 207 208 208 209 210 212 214 216 218 220 221 222 221 220 219 219 220 220 218 215 216 224 230 229
314 263 219 215 247 247 231 245 257 242 238 244 238 249 254 230 202 203 221 222 171 200 247 244 217 234 258 269 270 267 271 280 287 291 297 300 298 300 314 326 332 344 349 338 315 262 222 212 208 205 204 204 204 205 206 206 206 206 207 208 207 205 206 207 207 208 209 211 213 215 217 218 219 220 221 220 218 218 219 218 215 214 219 225 228 227
258 252 238 216 262 270 238 231 244 238 236 241 234 236 236 227 218 216 226 222 205 225 249 258 254 253 258 260 259 264 273 281 289 294 294 291 290 296 312 321 326 339 346 336 314 268 225 212 208 205 204 203 204 204 205 205 206 206 206 206 205 205 205 206 206 206 207 209 213 214 215 215 217 218 219 219 219 219 218 215 215 217 218 221 227 229
211 252 269 207 268 289 266 221 226 230 228 233 243 242 236 236 233 228 231 223 215 236 249 253 261 265 263 263 270 279 283 290 296 293 286 283 287 297 312 318 321 328 336 330 309 258 222 211 208 206 205 204 204 204 204 205 206 206 206 205 204 204 205 206 206 206 207 209 211 213 213 214 216 217 217 219 221 220 217 216 217 218 218 221 226 226
219 270 300 279 287 291 288 223 229 229 219 231 262 272 253 233 221 227 232 216 211 231 244 249 255 260 271 292 314 299 290 292 294 287 284 285 291 302 310 312 316 322 327 325 304 249 217 208 206 206 205 204 204 203 203 205 205 205 205 204 203 204 204 205 205 206 207 209 210 212 213 214 216 216 215 218 222 219 215 216 217 218 222 224 223 219
220 273 291 298 294 281 295 337 260 193 120 257 277 283 262 246 255 267 262 240 226 226 233 242 247 262 297 324 322 303 296 294 285 284 287 288 292 304 308 306 313 324 328 322 298 245 217 209 207 206 205 204 203 203 204 204 205 205 205 204 204 203 203 204 205 206 206 207 209 211 212 213 214 213 211 217 221 215 213 217 218 219 221 221 218 216
244 272 277 247 266 283 307 332 351 83 62 273 256 277 257 250 272 281 275 267 256 239 238 251 269 297 317 318 305 298 297 294 286 282 286 288 288 298 307 309 317 328 332 329 307 250 220 211 209 207 206 205 205 205 205 205 206 207 206 205 204 202 202 203 204 204 205 206 208 210 212 212 212 211 210 216 221 215 213 218 218 218 220 217 214 214
297 294 283 245 247 278 312 340 12 72 200 242 268 280 259 229 236 263 279 269 237 171 335 311 313 318 316 305 298 298 299 297 289 284 287 286 280 295 311 316 321 325 329 334 322 269 230 214 209 207 205 205 205 205 205 206 207 207 207 206 204 203 202 202 203 203 204 206 207 209 212 212 211 211 210 215 221 217 217 218 216 217 218 212 211 216
308 313 299 256 264 289 326 350 19 168 257 272 278 277 274 256 244 266 296 274 211 100 15 329 320 321 313 302 303 308 306 298 289 284 286 286 329 334 324 318 320 320 323 333 328 278 245 225 214 209 205 204 203 203 205 207 207 207 207 207 206 204 203 202 201 202 203 204 206 209 211 211 210 210 210 215 218 217 219 218 213 213 212 206 211 219
312 312 306 298 262 321 323 308 298 22 332 302 297 297 297 302 294 285 298 271 239 65 3 333 317 308 299 297 305 310 307 297 285 284 300 358 343 333 324 320 323 323 325 335 330 277 247 235 223 214 208 204 203 204 206 207 207 206 206 206 206 204 203 201 201 202 203 204 207 209 210 210 209 208 212 216 216 217 220 216 211 211 209 206 213 218
312 281 311 316 292 310 310 297 335 15 348 287 314 319 313 312 303 267 205 256 240 54 356 330 306 292 290 295 307 312 312 310 286 284 320 332 329 326 325 325 328 330 331 336 328 272 236 226 222 216 211 207 205 206 207 206 206 205 205 206 205 204 203 201 201 203 204 206 208 209 209 209 209 210 214 214 215 219 218 211 210 213 209 210 217 216
322 280 278 306 320 334 330 304 335 24 280 303 326 329 325 324 316 257 214 273 246 337 342 322 303 305 307 305 313 320 327 330 287 292 320 325 323 322 324 326 329 333 332 332 325 254 225 215 214 215 213 210 207 206 207 206 205 205 205 206 206 204 202 202 203 205 206 207 208 209 208 208 210 213 213 211 216 221 215 209 212 211 206 209 213 211
352 357 359 1 348 340 336 318 318 113 273 319 335 337 334 332 329 140 339 300 298 327 327 315 307 314 316 312 318 327 312 291 288 302 315 319 317 317 321 324 326 330 329 327 315 213 210 206 205 209 210 210 209 208 208 208 207 206 207 207 206 204 204 205 207 207 207 207 207 207 208 208 210 211 210 212 219 218 210 212 214 209 211 215 207 203
346 351 359 2 347 334 331 321 314 257 249 324 344 339 334 332 341 81 344 311 311 317 316 315 317 319 320 321 323 312 287 289 294 301 309 314 314 316 322 325 324 327 328 323 279 192 197 198 199 207 210 212 212 209 208 209 208 209 210 208 205 205 207 209 209 206 204 205 206 207 208 209 209 209 211 216 218 212 212 217 213 210 217 217 205 201
343 344 345 350 341 331 323 294 303 280 249 340 341 332 329 339 25 329 306 303 306 307 308 314 319 319 321 322 317 309 306 305 305 306 312 314 312 313 319 324 326 333 336 328 241 188 192 193 196 204 208 210 212 211 211 211 210 210 211 210 210 211 210 208 208 207 204 205 207 207 207 208 208 209 212 212 208 209 215 216 214 216 218 211 204 209
329 332 336 343 337 325 316 314 339 345 320 331 337 335 340 354 316 295 300 311 314 310 308 313 318 322 323 319 314 313 312 313 315 316 317 313 307 308 314 320 326 333 335 331 291 200 197 196 198 202 203 206 210 212 213 214 213 213 212 213 216 215 208 204 207 209 206 205 206 206 206 208 208 208 209 206 204 210 215 214 217 221 215 207 207 212
324 348 334 340 350 342 338 340 343 292 300 317 328 321 303 309 304 296 301 317 320 318 317 314 315 320 321 316 314 315 314 315 318 319 318 311 304 306 312 316 323 330 330 328 320 271 223 210 206 204 204 206 209 212 216 218 216 214 213 215 216 211 203 204 209 209 207 205 205 204 206 207 207 206 207 207 207 211 215 216 218 217 210 208 213 213
311 314 289 281 291 286 276 274 273 276 291 305 313 303 299 308 314 310 303 305 312 316 317 314 314 320 322 319 317 316 314 315 317 317 316 311 303 303 307 309 317 327 326 325 323 308 276 248 225 213 211 211 212 215 217 217 216 216 218 222 221 215 210 211 212 208 205 203 203 203 204 205 206 207 210 210 209 210 214 216 214 208 205 209 213 213
286 299 288 270 277 267 255 256 265 286 306 312 315 313 309 315 323 320 311 307 310 313 312 310 311 317 319 318 317 316 316 318 318 316 315 311 304 303 305 306 309 315 315 316 320 311 280 253 241 233 223 218 217 218 216 215 217 220 221 221 222 221 218 216 214 212 207 202 201 203 204 205 207 209 212 213 211 211 215 218 213 205 203 208 211 211
298 332 328 283 289 310 298 278 292 314 315 311 315 323 329 330 330 328 322 314 312 314 315 314 314 318 322 323 320 318 319 323 320 316 315 312 308 309 314 313 311 312 313 313 313 307 279 251 247 245 231 223 222 220 217 217 219 220 218 216 214 214 213 212 212 212 210 206 204 205 203 205 208 209 208 208 208 209 214 218 214 206 203 206 210 212
316 344 332 295 286 299 284 291 314 319 313 311 323 332 335 334 332 333 333 329 323 321 323 323 323 326 330 332 328 324 325 330 329 324 320 317 315 314 315 315 314 316 318 314 307 302 290 269 260 256 243 232 225 220 219 220 218 217 217 215 210 205 207 209 209 209 211 208 205 203 201 203 209 208 203 202 205 208 211 214 212 206 203 205 208 209
296 313 320 303 299 299 284 305 328 331 329 333 335 334 333 332 331 332 336 337 334 331 329 330 331 333 334 335 333 332 334 338 339 336 328 322 320 318 316 320 324 322 319 315 308 302 296 287 278 269 256 239 226 220 219 219 218 217 216 215 211 204 202 204 204 206 210 209 206 207 203 199 203 208 205 204 207 209 211 213 210 204 201 201 201 203
321 327 332 323 318 319 310 320 332 339 328 320 321 322 325 330 331 331 331 333 336 336 334 332 335 339 341 339 338 339 344 345 346 344 335 327 326 328 329 332 336 333 327 323 317 309 303 297 288 276 259 242 228 221 217 217 219 219 218 219 219 212 206 204 203 205 207 207 208 210 205 199 201 208 209 209 211 210 209 210 208 204 202 199 193 191
339 325 319 320 314 300 299 308 315 314 296 303 312 317 323 329 332 330 328 331 336 338 336 332 333 338 341 343 347 355 357 353 353 351 343 336 335 340 344 343 340 337 334 329 322 315 309 301 291 278 260 245 235 226 219 219 220 219 219 221 218 212 207 204 202 201 203 204 206 207 204 202 204 208 210 212 212 210 207 205 203 202 202 201 198 195